User: anonymous   Login
Location: Oronoko Observatory
(41.9167°N, 86.3833°W)
Time: 13:03:29
(UTC-04:00)
Language:

PAYLOAD A - Orbit

View from above orbital plane
View from above orbital plane
View from above satellite
View from above satellite

Ground track
Ground track

The orbit data is extracted from the following two-line orbital elements,

1 27840U 03031A   15184.87252475  .00000027  00000-0  21290-4 0  9994
2 27840 098.2067 202.6215 0099579 112.2152 014.2716 14.38811438630591
Epoch (UTC): 03 July 2015 20:56:26
Eccentricity: 0.0099579
inclination: 98.2067°
perigee height: 691 km
apogee height: 833 km
right ascension of ascending node: 202.6215°
argument of perigee: 112.2152°
revolutions per day: 14.38811438
mean anomaly at epoch: 14.2716°
orbit number at epoch: 63059

The dashed part of the orbit path shows where the satellite is in the earth's shadow,  

DLR